Location: Newark
(41.4000°N, 14.1833°E)
Time: 09:20:00
(UTC+00:00)

ISS - Visible Passes

Search period start: 25 January 2020 00:00
Search period end: 04 February 2020 00:00
Orbit: 415 x 423 km, 51.6° (Epoch: 25 January)

Date Brightness Start Highest point End Pass type
(mag) Time Alt. Az. Time Alt. Az. Time Alt. Az.
25 Jan -3.2 16:37:23 10° WSW 16:40:42 54° NNW 16:44:02 10° NE visible
25 Jan -1.3 18:15:44 10° WNW 18:17:29 17° NNW 18:17:29 17° NNW visible
26 Jan -1.8 17:27:43 10° WNW 17:30:21 21° NNW 17:31:56 15° NNE visible
27 Jan -2.1 16:39:44 10° W 16:42:39 26° NNW 16:45:33 10° NE visible
27 Jan -1.1 18:18:21 10° NW 18:19:20 13° NNW 18:19:20 13° NNW visible
28 Jan -1.5 17:30:24 10° NW 17:32:31 15° N 17:33:44 13° NNE visible
29 Jan -1.6 16:42:22 10° WNW 16:44:43 17° NNW 16:47:04 10° NNE visible
29 Jan -1.0 18:20:23 10° NNW 18:21:06 13° NNW 18:21:06 13° NNW visible
30 Jan -1.6 17:32:43 10° NNW 17:34:43 15° N 17:35:30 14° NNE visible
31 Jan -1.5 16:44:54 10° NW 16:46:52 15° N 16:48:51 10° NNE visible
31 Jan -1.2 18:21:55 10° NW 18:22:53 15° NNW 18:22:53 15° NNW visible
01 Feb -1.9 17:34:25 10° NNW 17:36:49 18° NNE 17:37:20 17° NNE visible
02 Feb -1.7 16:46:51 10° NNW 16:48:59 16° N 16:51:09 10° NE visible
02 Feb -1.7 18:23:18 10° NW 18:24:48 22° NNW 18:24:48 22° NNW visible
03 Feb -2.6 17:35:48 10° NW 17:38:46 28° NNE 17:39:23 26° NE visible
